www.pogodaiklimat.ru

Погода и климат >> Архив погоды >> Россия >> Красноярский край >> Хатанга


АРХИВ ПОГОДЫ в Хатанге

Время (UTC), дата Ветер
(напр.,м/с)
 
Видим.   Явления Облачность Т
(С)
Тd
(С)
f
(%)
Тe
(С)
Тes
(С)
Комфортность P
(гПа)
Po
(гПа)
Тmin
(С)
Tmax
(С)
R
(мм)
R24
(мм)
S
(см)
00 11.11 Ю 4 4000 м слабый ливневой снег 10/9 150 м
[Cb cap]
-26.9 -30.3 73 -37 -37 опасность
обморожения
1005.1 1000.6 -28.7 1 11
03 11.11 ЮЗ 7 10 км слабый снег {ливн. осадки} 10/4 330 м
[Sc As op]
-26.7 -30.1 73 -40 -40 опасность
обморожения
1005.0 1000.5
06 11.11 Ю 6 10 км слабый снег {ливн. осадки} 10/6 360 м
[Sc As op]
-26.6 -30.0 73 -39 -39 опасность
обморожения
1005.5 1001.0
09 11.11 Ю 6 4000 м слабый снег {метель} 10/6 330 м
[Sc As op]
-26.6 -29.0 80 -39 -39 опасность
обморожения
1005.8 1001.2
12 11.11 ЮЗ 6 4000 м слабый снег {метель} 10/4 360 м
[Sc As op]
-27.5 -29.9 80 -40 -40 опасность
обморожения
1006.7 1002.1 -26.4 2
15 11.11 ЮЗ 4 10 км снежные кристаллы {метель} 10/3 300 м
[Sc Ac trans Cs]
-27.7 -30.1 80 -38 -38 опасность
обморожения
1007.0 1002.4
18 11.11 ЮЗ 3 10 км снежные кристаллы {метель} 10/3 300 м
[Sc Ac trans Cs]
-26.4 -28.8 80 -35 -35 опасность
обморожения
1007.3 1002.7
21 11.11 Ю 4 10 км снежные кристаллы 10/3 300 м
[Sc Ac trans Cs]
-25.4 -27.8 80 -36 -36 опасность
обморожения
1007.6 1003.0
00 12.11 Ю 3 10 км снежные кристаллы 10/3 300 м
[Sc Ac trans Cs]
-26.6 -29.0 80 -36 -36 опасность
обморожения
1008.6 1004.0 -27.7 0.0 9
03 12.11 Ю 2 10 км снежные кристаллы 9/0
[Ac trans Cs]
-26.2 -29.6 73 -33 -33 опасность
обморожения
1010.0 1005.5
06 12.11 Ю 5 20 км в посл. час снег 8/0
[Ac trans Ci fib]
-26.9 -30.0 75 -39 -39 опасность
обморожения
1010.5 1005.9
09 12.11 ЮВ 4 20 км {снег} 4/0
[Ac trans Ci fib]
-28.1 -31.1 75 -39 -39 опасность
обморожения
1011.3 1006.7
12 12.11 Ю 4 10 км снежные кристаллы 10/0
[Ac trans Cs]
-26.3 -29.4 75 -37 -37 опасность
обморожения
1012.5 1007.9 -25.9 0.0
15 12.11 Ю 3 10 км снежные кристаллы 10/4 450 м
[Sc Cs]
-28.3 -31.9 71 -38 -38 опасность
обморожения
1013.1 1008.5
18 12.11 Ю 3 10 км снежные кристаллы 10/4 480 м
[Sc Cs]
-29.9 -33.7 69 -39 -39 опасность
обморожения
1013.8 1009.2
21 12.11 ЮЗ 4 20 км в посл. час снег 4/0
[Ci fib]
-31.1 -34.9 69 -43 -43 опасность
обморожения
1014.4 1009.8
00 13.11 ЮЗ 4 20 км {снег} 3/0
[Ac trans]
-32.0 -35.9 68 -44 -44 опасность
обморожения
1015.5 1010.8 -32.1 0.0 10
03 13.11 ЮЗ 4 20 км 6/3 330 м
[Sc Ac trans Ci fib]
-32.5 -36.4 68 -44 -44 опасность
обморожения
1015.8 1011.2 -32.6
06 13.11 ЮЗ 4 20 км 4/3 360 м
[Sc Ac trans Ci fib]
-32.0 -35.9 68 -44 -44 опасность
обморожения
1015.9 1011.3
09 13.11 Ю 4 20 км 4/0
[Ac trans Ci fib]
-29.9 -33.6 70 -41 -41 опасность
обморожения
1015.3 1010.7
12 13.11 Ю 4 20 км 4/0
[Ac trans]
-30.5 -34.3 69 -42 -42 опасность
обморожения
1013.3 1008.7 -29.8
15 13.11 Ю 5 20 км 4/0
[Ac trans]
-29.5 -33.5 68 -42 -42 опасность
обморожения
1009.8 1005.2
18 13.11 ЮВ 6 20 км позёмок {метель} 3/0
[Ac trans]
-27.9 -32.0 68 -41 -41 опасность
обморожения
1004.8 1000.3
21 13.11 Ю 7
{10}
20 км позёмок {метель} 3/0
[Ac trans]
-25.3 -30.0 65 -39 -39 опасность
обморожения
999.1 994.7
00 14.11 Ю 8
{10}
20 км позёмок {метель} 3/0
[Ac trans]
-14.1 -28.1 29 -25 -25 по сезону 996.1 991.6 -30.6 10
03 14.11 Ю 6
{10}
2000 м слабый ливневой снег {метель} 9/9 210 м
[Cb cap]
-23.7 -26.8 76 -36 -36 опасность
обморожения
994.2 989.7
06 14.11 Ю 6
{10}
10 км слабый ливневой снег {метель} 9/8 300 м
[Cb cap Ac trans Ci fib]
-22.9 -26.1 75 -35 -35 опасность
обморожения
992.5 988.1
09 14.11 Ю 6 10 км слабый ливневой снег {метель} 9/8 400 м
[Cb cap Ac und]
-22.2 -25.4 75 -34 -34 опасность
обморожения
992.5 988.1
12 14.11 Ю 8
{12}
4000 м слабый ливневой снег {метель} 9/9 180 м
[Cb cap]
-21.1 -23.6 80 -34 -34 опасность
обморожения
991.2 986.8 -20.9 1
15 14.11 Ю 7
{11}
10 км слабый ливневой снег {метель} 9/8 360 м
[Cb cap Ac und]
-15.2 -17.8 80 -26 -26 по сезону 991.1 986.9
18 14.11 З 7
{12}
10 км слабый ливневой снег {метель} 9/8 420 м
[Cb cap Ac und]
-14.2 -18.6 69 -24 -24 по сезону 993.0 988.8
21 14.11 ЮЗ 5
{11}
20 км позёмок {ливн. осадки, метель} 9/6 450 м
[Sc Ac und]
-18.8 -21.4 80 -29 -29 по сезону 995.3 991.0
00 15.11 ЮЗ 6
{10}
20 км позёмок {ливн. осадки, метель} 6/3 450 м
[Sc Ac trans Ci fib]
-21.4 -24.2 78 -33 -33 опасность
обморожения
996.9 992.5 0.1
03 15.11 ЮЗ 6 20 км позёмок {метель} 3/0
[Ci fib]
-23.7 -26.1 81 -36 -36 опасность
обморожения
998.3 993.8 -23.7
06 15.11 ЮЗ 5 20 км {метель} 3/0
[Ac trans Ci fib]
-24.3 -26.8 80 -35 -35 опасность
обморожения
999.8 995.3
09 15.11 Ю 3 20 км 3/0
[Ac trans Ci sp]
-27.0 -30.3 73 -36 -36 опасность
обморожения
1002.0 997.5
12 15.11 ЮЗ 3 20 км 4/0
[Ac trans Ci sp]
-27.2 -30.6 73 -36 -36 опасность
обморожения
1004.0 999.5 -21.2
15 15.11 ЮЗ 3 20 км 3/0
[Ac trans]
-28.3 -31.8 72 -38 -38 опасность
обморожения
1006.2 1001.7
18 15.11 ЮЗ 4 20 км 9/0
[Ac und]
-29.0 -32.5 72 -40 -40 опасность
обморожения
1008.5 1004.0
21 15.11 ЮЗ 5 10 км снежные кристаллы 10/0
[Ac trans Cs]
-29.5 -33.2 70 -42 -42 опасность
обморожения
1011.2 1006.6
00 16.11 ЮЗ 3 20 км {снег} 4/0
[Ac trans]
-29.9 -33.6 70 -39 -39 опасность
обморожения
1013.5 1008.9 -29.7 0.0 11
03 16.11 ЮЗ 4 20 км 4/0
[Ac trans]
-30.9 -33.8 76 -42 -42 опасность
обморожения
1015.3 1010.6 -30.9
06 16.11 ЮЗ 4 20 км 8/0
[Ac trans Ci fib]
-30.0 -32.3 80 -41 -41 опасность
обморожения
1017.1 1012.4
09 16.11 ЮЗ 4 20 км 3/0
[Ac trans Ci fib]
-29.9 -32.3 79 -41 -41 опасность
обморожения
1018.8 1014.1
12 16.11 ЮЗ 5 20 км 3/0
[Ci fib]
-29.6 -31.9 80 -42 -42 опасность
обморожения
1019.6 1015.0 -29.6
15 16.11 Ю 4 10 км снежные кристаллы 10/0
[Ac trans Cs]
-29.5 -33.2 70 -41 -41 опасность
обморожения
1019.0 1014.4
18 16.11 Ю 6 10 км слабый снег {метель} 10/5 240 м
[Frnb As op]
-23.5 -26.7 75 -35 -35 опасность
обморожения
1016.8 1012.3
21 16.11 Ю 7
{10}
10 км слабый ливневой снег 9/9 210 м
[Cb cap]
-16.6 -19.0 82 -27 -27 по сезону 1014.2 1009.9
00 17.11 ЮЗ 9
{14}
2000 м слабый ливневой снег 9/9 210 м
[Cb cap]
-11.9 -13.9 85 -22 -22 тепло 1012.7 1008.5 -29.8 0.3 14
03 17.11 ЮЗ 10
{13}
2000 м слабый ливневой снег {метель} 9/9 240 м
[Cb cap]
-10.3 -12.3 85 -21 -21 тепло 1012.5 1008.2
06 17.11 З 10
{14}
4000 м слабый ливневой снег {метель} 10/9 210 м
[Cb cap]
-10.2 -13.1 79 -21 -21 тепло 1012.4 1008.2
09 17.11 ЮЗ 8
{11}
20 км позёмок {ливн. осадки, метель} 10/4 840 м
[Sc Ac und]
-9.0 -13.0 73 -18 -18 тепло 1011.8 1007.6
12 17.11 З 6
{13}
20 км позёмок {ливн. осадки, метель} 10/5 570 м
[Sc Ac und]
-9.5 -14.1 69 -18 -18 тепло 1011.8 1007.6 -8.8 0.5
15 17.11 Ю 2 20 км {метель} 10/4 450 м
[Sc Ac und]
-10.4 -14.0 75 -15 -15 тепло 1011.2 1007.0

 

Местоположение метеостанции Хатанга (Красноярский край, Россия): широта 71.98 долгота 102.47 высота над уровнем моря 33 м.

В архиве по умолчанию представлена погода в Хатанге за последнюю неделю. Архивные данные за месяц целиком и за предыдущие месяцы, начиная с января 2011 года, Вы можете получить, выбрав интересующий диапазон дат из раскрывающегося списка и нажав кнопку "Ввод!".


*Определитесь, кто Вы:
робот инопланетянин человек

Внимание! Время в таблицах - всемирное. Для получения местного времени необходимо прибавить поправку, которая в Хатанге равна 7 ч.

Смотрите также архив погоды в соседних городах и на ближайших метеорологических станциях:

Погода в Волочанке (Красноярский край, Россия) (303 км)
Погода в Анабаре (Якутия, Россия) (391 км)
Погода в Саскылахе (Якутия, Россия) (396 км)
Погода на Острове Преображения (Якутия, Россия) (447 км)
Погода в Джалинде (Якутия, Россия) (460 км)
Погода в Крестах Таймырских (Красноярский край, Россия) (462 км)
Погода в Оленеке (Якутия, Россия) (537 км)
Погода на Мысе Стерлегова (Красноярский край, Россия) (568 км)
Погода в Ярольине (Якутия, Россия) (587 км)
Погода в Усть-Оленеке (Якутия, Россия) (589 км)

Пояснения к столбцам:

Ветер - указаны скорость ветра в м/с - средняя за 10 мин, порывы в срок и между сроками (в фигурных скобках) и направление, откуда дует ветер: С - северный, СВ - северо-восточный, В - восточный, ЮВ - юго-восточный, Ю - южный, ЮЗ - юго-западный, З - западный, СЗ - северо-западный.
Видимость - горизонтальная дальность видимости в метрах или километрах. При видимости от 1 до 10 км при отсутствии осадков обычно наблюдается дымка, при ухудшении видимости до 1 км и менее - туман. В сухую погоду видимость может ухудшаться дымом, пылью или мглою.
Явления - указаны атмосферные явления, наблюдавшиеся в срок или в последний час перед сроком; фигурными скобками обозначены явления, наблюдавшиеся между сроками (за 1-3 часа до срока); квадратными скобками обозначены град или гололедные отложения с указанием их диаметра в мм.
Облачность - указаны через наклонную черту общая и нижняя облачность в баллах и высота нижней границы облаков в метрах; квадратными скобками обозначены формы облаков: Ci - перистые, Cs - перисто-слоистые, Cc - перисто-кучевые, Ac - высококучевые, As - высокослоистые, Sc - слоисто-кучевые, Ns - слоисто-дождевые, Cu - кучевые, Cb - кучево-дождевые. Подробнее классификацию облаков см. в Атласе облаков (PDF).
T - Температура воздуха - температура, измеренная на высоте 2 м над землей.
Td - Температура точки росы - температура, при понижении до которой содержащийся в воздухе водяной пар достигнет насыщения.
f - Относительная влажность воздуха - влажноcть воздуха, измеренная на высоте 2 м над землей.
Te - Эффективная температура - температура, которую ощущает одетый по сезону человек в тени. Характеристика душности погоды. При расчете учитывается влияние влажности воздуха и скорости ветра на теплоощущения человека.
Tes - Эффективная температура на солнце - температура, которую ощущает человек, с поправкой на солнечный нагрев. Характеристика знойности погоды. Зависит от высоты солнца над горизонтом, облачности и скорости ветра. Ночью, в пасмурную погоду, а также при ветре 12 м/с и более поправка равна нулю.
P - Атмосферное давление - приведенное к уровню моря атмосферное давление.
Po - Атмосферное давление - измеренное на уровне метеостанции атмосферное давление.
Tmin - Минимальная температура - минимум температуры воздуха на высоте 2 м над землей.
Tmax - Максимальная температура - максимум температуры воздуха на высоте 2 м над землей.
R - Количество осадков - Количество выпавших осадков за период времени, мм. При наведении курсора мыши на число - период времени, за который выпало указанное количество осадков.
R24 - Количество осадков - Количество выпавших осадков за 24 часа, мм.
S - Снежный покров - Высота снежного покрова, см. При наведении курсора мыши на число - состояние снежного покрова и степень покрытия местности в баллах.